Home   Weather   Houston   Past weeks
Flag for USA

Past Weather in Houston, Texas, USA — Yesterday and Last 2 Weeks

Now
66 °F

More clouds than sun.


Feels Like: 66 °F
Forecast: 70 / 48 °F
Wind: 16 mph from East

Location: Houston Hobby Airport

Current Time: Mar 18, 2019 at 1:26:12 pm

Latest Report: Mar 18, 2019 at 12:53 pm


Visibility: 10 mi

Pressure: 30.32 "Hg

Humidity: 28%

Dew Point: 32 °F

Location of HoustonLocation

Past Weather in Houston — Graph

°F

Houston Temperature Yesterday

Maximum temperature yesterday: 63 °F (at 4:53 pm)
Minimum temperature yesterday: 53 °F (at 6:53 am)
Average temperature yesterday: 57 °F

High & Low Weather Summary for the Past Weeks

 TemperatureHumidityPressure
High82 °F (Mar 11, 1:53 pm)100% (Mar 12, 1:53 am)30.52 "Hg (Mar 12, 1:53 am)
Low31 °F (Mar 5, 4:53 am)26% (Mar 14, 5:53 pm)29.66 "Hg (Mar 13, 5:53 pm)
Average61 °F71%30.14 "Hg
* Reported Mar 3 11:03 am — Mar 18 11:53 am, Houston. Weather by CustomWeather, © 2019

Note: Actual official high and low records may vary slightly from our data, if they occured in-between our weather recording intervals... More about our weather records

Advertising

Houston Weather History for the Previous 24 Hours

Scroll right to see more
 ConditionsComfort  
Time TempWeatherWind HumidityBarometerVisibility
11:53 am
Mon, Mar 18
65 °FOvercast.14 mph33%30.31 "Hg10 mi
10:53 am61 °FMore clouds than sun.10 mph44%30.32 "Hg10 mi
9:53 am56 °FMostly cloudy.7 mph53%30.32 "Hg10 mi
8:53 am52 °FMore clouds than sun.3 mph66%30.30 "Hg8 mi
7:53 am49 °FBroken clouds.3 mph69%30.26 "Hg7 mi
6:53 am48 °FPartly cloudy.3 mph71%30.25 "Hg10 mi
5:53 am49 °FPassing clouds.3 mph69%30.24 "Hg10 mi
4:53 am49 °FPartly cloudy.No wind69%30.25 "Hg10 mi
3:53 am49 °FPartly cloudy.5 mph74%30.25 "Hg10 mi
2:53 am49 °FPartly cloudy.No wind71%30.27 "Hg10 mi
1:53 am51 °FPassing clouds.No wind66%30.27 "Hg10 mi
12:53 am52 °FPassing clouds.No wind64%30.27 "Hg10 mi
11:53 pm
Sun, Mar 17
53 °FPartly cloudy.3 mph59%30.28 "Hg10 mi
10:53 pm55 °FPartly cloudy.3 mph51%30.29 "Hg10 mi
9:53 pm54 °FPartly cloudy.6 mph57%30.28 "Hg10 mi
8:53 pm56 °FPartly cloudy.No wind47%30.27 "Hg10 mi
7:53 pm57 °FPartly cloudy.6 mph44%30.25 "Hg10 mi
6:53 pm61 °FBroken clouds.5 mph35%30.25 "Hg10 mi
5:53 pm62 °FBroken clouds.6 mph31%30.25 "Hg10 mi
4:53 pm63 °FBroken clouds.5 mph29%30.25 "Hg10 mi
3:53 pm62 °FBroken clouds.10 mph29%30.25 "Hg10 mi
2:53 pm62 °FBroken clouds.9 mph26%30.29 "Hg10 mi
1:53 pm61 °FPartly sunny.13 mph30%30.31 "Hg10 mi
Weather by CustomWeather, © 2019

See weather overview